Weather History for Cordova, AK

Change the Weather History Date:

Friday, February 17, 2012

  Actual Average Record
Temperature  
Mean Temperature 34 °F -  
Max Temperature 36 °F 34 °F 47 °F (1963)
Min Temperature 30 °F 19 °F -10 °F (1954)
Degree Days  
Heating Degree Days 31    
Moisture  
Dew Point 32 °F    
Average Humidity 91    
Maximum Humidity 100    
Minimum Humidity 81    
Precipitation  
Precipitation 0.38 in - - ()
Snow  
Snow 0.00 in - - ()
Snow Depth 32.00 in    
Sea Level Pressure  
Sea Level Pressure 29.82 in    
Wind  
Wind Speed 5 mph (East)    
Max Wind Speed 9 mph    
Max Gust Speed -    
Visibility 7 miles    
Events Rain , Snow    
Averages and records for this station are not official NWS values.
T = Trace of Precipitation, MM = Missing Value Source: NWS Daily Summary

Daily Weather History Graph

Daily Weather History Graph

Search for Another Location

Airport:

Trip Planner

Search our weather history database for the weather conditions in past years. The results will help you decide how hot, cold, wet, or windy it might be!

Date:

Astronomy

Feb. 17, 2012 Rise Set
Actual Time 8:16 AM AKST 5:35 PM AKST
Civil Twilight 7:32 AM AKST 6:20 PM AKST
Nautical Twilight 6:43 AM AKST 7:09 PM AKST
Astronomical Twilight 5:54 AM AKST 7:58 PM AKST
Moon 6:12 AM AKST (2/17) 12:44 PM AKST (2/17)
Length of Visible Light 10h 47m
Length of Day
9h 19m
Waning Crescent, 18% of the Moon is Illuminated
Feb 17
Waning Crescent
Feb 21
New
Feb 29
First Quarter
Mar 8
Full
Mar 14
Last Quarter

Hourly Weather History & Observations

Time (AKST) Temp. Windchill Dew Point Humidity Pressure Visibility Wind Dir Wind Speed Gust Speed Precip Events Conditions
12:06 AM 35.6 °F 30.7 °F 30.2 °F 81% 29.75 in 9.0 mi East 5.8 mph - 0.00 in Rain , Snow Light Rain
12:53 AM 35.1 °F 30.1 °F 32.0 °F 89% 29.76 in 10.0 mi East 5.8 mph - 0.01 in Rain Light Rain
1:53 AM 35.1 °F 30.1 °F 32.0 °F 89% 29.76 in 10.0 mi East 5.8 mph - 0.01 in   Overcast
3:53 AM 36.0 °F 29.6 °F 30.9 °F 82% 29.75 in 10.0 mi ENE 8.1 mph - N/A   Overcast
4:53 AM 35.1 °F - 30.9 °F 85% 29.74 in 10.0 mi Calm Calm - N/A   Overcast
5:53 AM 36.0 °F 32.1 °F 30.9 °F 82% 29.75 in 10.0 mi East 4.6 mph - N/A   Overcast
6:22 AM 35.6 °F 31.7 °F 30.2 °F 81% 29.75 in 10.0 mi East 4.6 mph - 0.00 in Rain Light Rain
6:53 AM 34.0 °F 27.2 °F 30.9 °F 89% 29.77 in 3.0 mi East 8.1 mph - 0.03 in Rain , Snow Light Rain
7:01 AM 33.8 °F 28.6 °F 32.0 °F 93% 29.76 in 2.5 mi East 5.8 mph - 0.02 in Snow Light Snow
7:15 AM 33.8 °F 28.6 °F 32.0 °F 93% 29.76 in 2.5 mi East 5.8 mph - 0.03 in Snow Light Snow
7:26 AM 33.8 °F 29.6 °F 32.0 °F 93% 29.77 in 3.0 mi ENE 4.6 mph - 0.03 in Snow Light Snow
7:53 AM 34.0 °F 29.8 °F 32.0 °F 92% 29.78 in 9.0 mi East 4.6 mph - 0.04 in   Overcast
8:50 AM 35.6 °F 30.7 °F 32.0 °F 87% 29.78 in 10.0 mi East 5.8 mph - 0.00 in Rain Light Rain
8:53 AM 35.1 °F 32.2 °F 32.0 °F 89% 29.79 in 10.0 mi East 3.5 mph - 0.00 in Rain Light Rain
9:53 AM 36.0 °F 32.1 °F 33.1 °F 89% 29.79 in 10.0 mi ESE 4.6 mph - 0.00 in Rain Light Rain
10:00 AM 35.6 °F 29.9 °F 32.0 °F 87% 29.79 in 10.0 mi ESE 6.9 mph - 0.00 in Rain Light Rain
10:09 AM 35.6 °F 29.2 °F 32.0 °F 87% 29.79 in 10.0 mi East 8.1 mph - 0.01 in Rain Light Rain
10:44 AM 35.6 °F 29.2 °F 32.0 °F 87% 29.80 in 4.0 mi ESE 8.1 mph - 0.03 in Rain , Snow Light Snow
10:53 AM 34.0 °F 28.0 °F 32.0 °F 92% 29.81 in 4.0 mi ESE 6.9 mph - 0.04 in Rain Light Rain
11:53 AM 34.0 °F 28.8 °F 32.0 °F 92% 29.82 in 8.0 mi East 5.8 mph - 0.00 in Rain Light Rain
12:12 PM 33.8 °F 29.6 °F 32.0 °F 93% 29.82 in 2.5 mi East 4.6 mph - 0.01 in Snow Light Snow
12:19 PM 33.8 °F 27.7 °F 32.0 °F 93% 29.82 in 0.8 mi East 6.9 mph - 0.03 in Snow Light Snow
12:32 PM 33.8 °F - 32.0 °F 93% 29.82 in 2.0 mi Calm Calm - 0.04 in Snow Light Snow
12:39 PM 33.8 °F 29.6 °F 32.0 °F 93% 29.82 in 6.0 mi East 4.6 mph - 0.04 in   Overcast
12:53 PM 35.1 °F 27.9 °F 33.1 °F 92% 29.83 in 10.0 mi East 9.2 mph - 0.04 in   Overcast
1:34 PM 35.6 °F 30.7 °F 33.8 °F 93% 29.83 in 10.0 mi ESE 5.8 mph - 0.00 in   Overcast
1:53 PM 36.0 °F 30.3 °F 33.1 °F 89% 29.83 in 6.0 mi ESE 6.9 mph - 0.00 in Rain Light Rain
2:37 PM 35.6 °F 32.8 °F 33.8 °F 93% 29.83 in 10.0 mi East 3.5 mph - 0.01 in   Overcast
2:53 PM 35.1 °F - 34.0 °F 96% 29.83 in 10.0 mi Calm Calm - 0.01 in Rain Light Rain
3:37 PM 33.8 °F 27.0 °F 32.0 °F 93% 29.83 in 1.5 mi East 8.1 mph - 0.06 in Snow Light Snow
3:42 PM 33.8 °F 27.7 °F 32.0 °F 93% 29.83 in 0.8 mi ESE 6.9 mph - 0.07 in Snow Light Snow
3:51 PM 33.8 °F 30.8 °F 32.0 °F 93% 29.83 in 2.0 mi ESE 3.5 mph - 0.08 in Snow Light Snow
3:53 PM 34.0 °F 29.8 °F 32.0 °F 92% 29.83 in 2.5 mi SE 4.6 mph - 0.09 in Snow Light Snow
3:58 PM 33.8 °F 27.7 °F 32.0 °F 93% 29.83 in 1.2 mi SE 6.9 mph - 0.01 in Snow Light Snow
4:11 PM 33.8 °F 30.8 °F 32.0 °F 93% 29.83 in 1.2 mi East 3.5 mph - 0.03 in Snow Light Snow
4:18 PM 33.8 °F - 32.0 °F 93% 29.83 in 3.0 mi Calm Calm - 0.03 in Rain , Snow Light Rain
4:32 PM 33.8 °F - 32.0 °F 93% 29.83 in 10.0 mi Calm Calm - 0.03 in   Overcast
4:48 PM 33.8 °F 30.8 °F 32.0 °F 93% 29.83 in 10.0 mi ENE 3.5 mph - 0.03 in   Overcast
4:53 PM 34.0 °F - 32.0 °F 92% 29.83 in 10.0 mi Calm Calm - 0.03 in   Overcast
5:05 PM 33.8 °F - 32.0 °F 93% 29.83 in 10.0 mi Calm Calm - N/A   Overcast
5:25 PM 33.8 °F 30.8 °F 32.0 °F 93% 29.83 in 10.0 mi ENE 3.5 mph - N/A   Overcast
5:35 PM 33.8 °F 30.8 °F 32.0 °F 93% 29.83 in 10.0 mi East 3.5 mph - N/A   Overcast
5:53 PM 34.0 °F 31.0 °F 32.0 °F 92% 29.84 in 10.0 mi ESE 3.5 mph - N/A   Overcast
6:53 PM 34.0 °F - 32.0 °F 92% 29.84 in 10.0 mi Calm Calm - N/A   Overcast
7:04 PM 33.8 °F 29.6 °F 32.0 °F 93% 29.84 in 10.0 mi South 4.6 mph - N/A   Overcast
7:23 PM 33.8 °F 30.8 °F 30.2 °F 87% 29.85 in 2.0 mi SSE 3.5 mph - 0.01 in Snow Light Snow
7:31 PM 33.8 °F 29.6 °F 30.2 °F 87% 29.85 in 1.2 mi SE 4.6 mph - 0.03 in Snow Light Snow
7:53 PM 33.1 °F 27.7 °F 30.9 °F 92% 29.85 in 1.2 mi East 5.8 mph - 0.06 in Snow Light Snow
7:58 PM 33.8 °F 27.7 °F 30.2 °F 87% 29.84 in 2.0 mi ESE 6.9 mph - 0.00 in Snow Light Snow
8:08 PM 33.8 °F 28.6 °F 30.2 °F 87% 29.84 in 1.8 mi ESE 5.8 mph - 0.00 in Snow Light Snow
8:23 PM 33.8 °F 27.7 °F 30.2 °F 87% 29.84 in 2.5 mi ESE 6.9 mph - 0.01 in Snow Light Snow
8:37 PM 33.8 °F 28.6 °F 30.2 °F 87% 29.84 in 5.0 mi East 5.8 mph - 0.01 in Snow Light Snow
8:53 PM 33.1 °F 30.0 °F 32.0 °F 96% 29.85 in 10.0 mi East 3.5 mph - 0.01 in   Overcast
9:08 PM 33.8 °F - 32.0 °F 93% 29.85 in 10.0 mi Calm Calm - N/A   Overcast
9:53 PM 32.0 °F - 32.0 °F 100% 29.85 in 9.0 mi Calm Calm - 0.00 in Snow Light Snow
10:28 PM 33.8 °F 30.8 °F 32.0 °F 93% 29.85 in 2.5 mi ENE 3.5 mph - 0.01 in Snow Light Snow
10:36 PM 33.8 °F - 32.0 °F 93% 29.85 in 9.0 mi Calm Calm - 0.01 in   Overcast
10:46 PM 32.0 °F - 30.2 °F 93% 29.85 in 10.0 mi Calm Calm - 0.01 in   Overcast
10:53 PM 32.0 °F - 30.9 °F 96% 29.85 in 10.0 mi Calm Calm - 0.01 in   Mostly Cloudy
11:53 PM 30.9 °F 27.5 °F 30.0 °F 96% 29.85 in 4.0 mi SSW 3.5 mph - N/A   Mostly Cloudy